| time (UTC) | temp F | wind direction | speed knots | gust knots | rain 1hr in | rain 24hr in | rain mn in | humidity % | barometer mb |
| 20260504141104 | 63 | 272 | 0.9 | 1.7 | 0.00 | 0.21 | 0.00 | 93 | 1017.0 |
| 20260504140604 | 63 | 272 | 1.7 | 6.1 | 0.00 | 0.21 | 0.00 | 93 | 1017.1 |
| 20260504140104 | 63 | 281 | 2.6 | 4.3 | 0.00 | 0.21 | 0.00 | 93 | 1017.1 |
| 20260504130604 | 63 | 259 | 3.5 | 7.0 | 0.00 | 0.21 | 0.21 | 93 | 1017.2 |
| 20260504130104 | 63 | 284 | 3.5 | 6.1 | 0.00 | 0.21 | 0.21 | 93 | 1017.2 |
| 20260504120104 | 62 | 270 | 2.6 | 4.3 | 0.00 | 0.21 | 0.21 | 92 | 1017.2 |
| 20260504110604 | 63 | 243 | 5.2 | 7.8 | 0.00 | 0.21 | 0.21 | 91 | 1016.7 |
| 20260504100604 | 65 | 245 | 0.9 | 1.7 | 0.00 | 0.21 | 0.21 | 89 | 1015.9 |
| 20260504100105 | 65 | 245 | 0.0 | 1.7 | 0.00 | 0.21 | 0.21 | 89 | 1015.9 |
| 20260504090104 | 68 | 336 | 1.7 | 2.6 | 0.00 | 0.21 | 0.21 | 81 | 1015.9 |
| 20260504081604 | 68 | 25 | 4.3 | 10.4 | 0.00 | 0.21 | 0.21 | 83 | 1015.4 |
| 20260504081104 | 68 | 27 | 2.6 | 5.2 | 0.00 | 0.21 | 0.21 | 83 | 1015.4 |
| 20260504080604 | 68 | 32 | 2.6 | 5.2 | 0.00 | 0.21 | 0.21 | 83 | 1015.5 |
| 20260504080104 | 68 | 30 | 2.6 | 5.2 | 0.00 | 0.21 | 0.21 | 83 | 1015.4 |
| 20260504070104 | 69 | 11 | 4.3 | 6.1 | 0.00 | 0.21 | 0.21 | 81 | 1015.1 |
| 20260504060104 | 69 | 23 | 2.6 | 5.2 | 0.00 | 0.21 | 0.21 | 80 | 1015.2 |
| 20260504050604 | 69 | 356 | 3.5 | 10.4 | 0.00 | 0.21 | 0.21 | 80 | 1015.3 |
| 20260504050104 | 69 | 338 | 5.2 | 8.7 | 0.00 | 0.21 | 0.21 | 81 | 1015.3 |
| 20260504045604 | 69 | 358 | 1.7 | 6.1 | 0.00 | 0.21 | 0.21 | 83 | 1015.3 |
| 20260504045104 | 69 | 340 | 0.0 | 2.6 | 0.00 | 0.21 | 0.21 | 84 | 1015.3 |
| 20260504044603 | 69 | 340 | 1.7 | 2.6 | 0.00 | 0.21 | 0.21 | 83 | 1015.4 |
| 20260504044104 | 69 | 342 | 0.0 | 2.6 | 0.00 | 0.21 | 0.21 | 83 | 1015.4 |
| 20260504043604 | 69 | 343 | 0.0 | 1.7 | 0.00 | 0.21 | 0.21 | 84 | 1015.3 |
| 20260504043104 | 68 | 343 | 0.9 | 2.6 | 0.00 | 0.21 | 0.21 | 84 | 1015.2 |
| 20260504042604 | 69 | 343 | 0.0 | 2.6 | 0.00 | 0.21 | 0.21 | 86 | 1015.4 |
| 20260504041604 | 67 | 5 | 3.5 | 6.1 | 0.00 | 0.21 | 0.21 | 87 | 1015.4 |
| 20260504041104 | 67 | 19 | 2.6 | 6.1 | 0.00 | 0.21 | 0.21 | 89 | 1015.4 |
| 20260504040604 | 67 | 22 | 1.7 | 8.7 | 0.00 | 0.21 | 0.21 | 90 | 1015.5 |
| 20260504040104 | 66 | 34 | 2.6 | 7.8 | 0.00 | 0.21 | 0.21 | 91 | 1015.6 |
| 20260504035604 | 66 | 30 | 3.5 | 7.0 | 0.00 | 0.21 | 0.21 | 92 | 1015.7 |
| 20260504035104 | 65 | 35 | 2.6 | 6.1 | 0.00 | 0.21 | 0.21 | 92 | 1015.6 |
| 20260504034604 | 65 | 6 | 3.5 | 8.7 | 0.00 | 0.21 | 0.21 | 92 | 1015.7 |
| 20260504034104 | 65 | 13 | 1.7 | 6.1 | 0.00 | 0.21 | 0.21 | 94 | 1015.8 |
| 20260504033104 | 64 | 46 | 2.6 | 5.2 | 0.00 | 0.21 | 0.21 | 94 | 1015.6 |
| 20260504032604 | 64 | 38 | 1.7 | 7.0 | 0.00 | 0.21 | 0.21 | 95 | 1015.9 |
| 20260504032104 | 63 | 41 | 3.5 | 6.1 | 0.00 | 0.21 | 0.21 | 95 | 1016.1 |
| 20260504031604 | 63 | 27 | 4.3 | 5.2 | 0.00 | 0.21 | 0.21 | 95 | 1016.2 |
| 20260504031104 | 63 | 55 | 2.6 | 8.7 | 0.00 | 0.21 | 0.21 | 95 | 1016.1 |
| 20260504030104 | 63 | 40 | 5.2 | 8.7 | 0.00 | 0.21 | 0.21 | 95 | 1016.3 |
| 20260504024604 | 63 | 50 | 5.2 | 8.7 | 0.02 | 0.21 | 0.21 | 95 | 1016.6 |
| 20260504023604 | 64 | 46 | 4.3 | 8.7 | 0.06 | 0.21 | 0.21 | 95 | 1016.8 |
| 20260504023104 | 63 | 43 | 6.1 | 10.4 | 0.06 | 0.21 | 0.21 | 95 | 1016.9 |
| 20260504022604 | 63 | 49 | 4.3 | 7.8 | 0.07 | 0.21 | 0.21 | 95 | 1017.0 |
| 20260504021604 | 63 | 52 | 3.5 | 7.0 | 0.09 | 0.21 | 0.21 | 95 | 1017.3 |
| 20260504021104 | 63 | 59 | 5.2 | 7.0 | 0.09 | 0.21 | 0.21 | 95 | 1017.5 |
| 20260504020604 | 63 | 63 | 4.3 | 6.1 | 0.09 | 0.21 | 0.21 | 95 | 1017.4 |
| 20260504020105 | 63 | 71 | 3.5 | 5.2 | 0.09 | 0.21 | 0.21 | 95 | 1017.5 |
| 20260504015604 | 63 | 47 | 3.5 | 5.2 | 0.09 | 0.20 | 0.20 | 95 | 1017.8 |
| 20260504015104 | 63 | 53 | 2.6 | 4.3 | 0.10 | 0.20 | 0.20 | 95 | 1018.0 |
| 20260504013605 | 63 | 29 | 0.9 | 2.6 | 0.09 | 0.16 | 0.16 | 95 | 1018.4 |
| 20260504013104 | 63 | 29 | 1.7 | 4.3 | 0.09 | 0.15 | 0.15 | 95 | 1018.3 |
| 20260504012604 | 63 | 37 | 2.6 | 5.2 | 0.09 | 0.14 | 0.14 | 94 | 1018.4 |
| 20260504011104 | 63 | 121 | 1.7 | 2.6 | 0.08 | 0.12 | 0.12 | 94 | 1018.5 |
| 20260504010604 | 63 | 121 | 0.0 | 0.9 | 0.09 | 0.12 | 0.12 | 94 | 1018.5 |
| 20260504010105 | 63 | 121 | 0.9 | 2.6 | 0.09 | 0.12 | 0.12 | 94 | 1018.4 |
| 20260504005605 | 63 | 121 | 1.7 | 2.6 | 0.08 | 0.11 | 0.11 | 94 | 1018.5 |
| 20260504005104 | 63 | 121 | 0.9 | 1.7 | 0.08 | 0.10 | 0.10 | 94 | 1018.4 |
| 20260504004604 | 63 | 121 | 0.9 | 1.7 | 0.07 | 0.09 | 0.09 | 94 | 1018.5 |
| 20260504004104 | 63 | 121 | 0.0 | 0.0 | 0.06 | 0.08 | 0.08 | 94 | 1018.5 |
| 20260504003604 | 63 | 121 | 0.0 | 0.9 | 0.05 | 0.06 | 0.06 | 94 | 1018.5 |
| 20260504003104 | 63 | 121 | 0.0 | 0.9 | 0.05 | 0.06 | 0.06 | 94 | 1018.4 |
| 20260504002604 | 63 | 121 | 0.9 | 1.7 | 0.06 | 0.06 | 0.06 | 93 | 1018.4 |
| 20260504002104 | 63 | 121 | 0.9 | 1.7 | 0.05 | 0.05 | 0.05 | 93 | 1018.5 |
| 20260504001604 | 63 | 121 | 1.7 | 2.6 | 0.04 | 0.04 | 0.04 | 93 | 1018.5 |
| 20260504000604 | 63 | 121 | 0.0 | 2.6 | 0.03 | 0.03 | 0.03 | 93 | 1018.4 |
| 20260504000104 | 63 | 122 | 0.9 | 2.6 | 0.03 | 0.03 | 0.03 | 93 | 1018.2 |
| 20260503235605 | 63 | 244 | 0.9 | 2.6 | 0.03 | 0.03 | 0.03 | 93 | 1018.4 |
| 20260503234605 | 63 | 309 | 0.0 | 0.0 | 0.02 | 0.02 | 0.02 | 92 | 1018.5 |
| 20260503234104 | 63 | 309 | 0.0 | 0.9 | 0.02 | 0.02 | 0.02 | 91 | 1018.5 |
| 20260503233604 | 63 | 309 | 0.9 | 1.7 | 0.02 | 0.02 | 0.02 | 91 | 1018.5 |
| 20260503232604 | 63 | 309 | 0.9 | 2.6 | 0.00 | 0.00 | 0.00 | 91 | 1018.6 |
| 20260503231104 | 64 | 327 | 2.6 | 6.1 | 0.00 | 0.00 | 0.00 | 90 | 1019.0 |
| 20260503230604 | 64 | 335 | 2.6 | 6.1 | 0.00 | 0.00 | 0.00 | 89 | 1019.0 |
| 20260503230104 | 63 | 323 | 3.5 | 7.0 | 0.00 | 0.00 | 0.00 | 89 | 1018.9 |
| 20260503225604 | 63 | 327 | 3.5 | 6.1 | 0.00 | 0.00 | 0.00 | 89 | 1018.8 |
| 20260503224604 | 63 | 319 | 2.6 | 5.2 | 0.00 | 0.00 | 0.00 | 89 | 1018.6 |
| 20260503224104 | 63 | 332 | 4.3 | 6.1 | 0.00 | 0.00 | 0.00 | 89 | 1018.5 |
| 20260503223604 | 63 | 326 | 2.6 | 6.1 | 0.00 | 0.00 | 0.00 | 89 | 1018.3 |
| 20260503223104 | 63 | 346 | 2.6 | 6.1 | 0.00 | 0.00 | 0.00 | 89 | 1018.3 |
| 20260503222104 | 63 | 12 | 2.6 | 4.3 | 0.00 | 0.00 | 0.00 | 90 | 1018.0 |
| 20260503221604 | 63 | 20 | 2.6 | 5.2 | 0.00 | 0.00 | 0.00 | 90 | 1018.0 |
| 20260503221104 | 63 | 20 | 1.7 | 2.6 | 0.00 | 0.00 | 0.00 | 90 | 1017.9 |
| 20260503220604 | 63 | 29 | 1.7 | 5.2 | 0.00 | 0.00 | 0.00 | 90 | 1017.9 |
| 20260503220104 | 63 | 19 | 2.6 | 4.3 | 0.00 | 0.00 | 0.00 | 91 | 1017.9 |
| 20260503215604 | 63 | 19 | 1.7 | 4.3 | 0.00 | 0.00 | 0.00 | 91 | 1017.8 |
| 20260503214103 | 62 | 19 | 1.7 | 6.1 | 0.00 | 0.00 | 0.00 | 92 | 1017.6 |
| 20260503213604 | 63 | 19 | 2.6 | 4.3 | 0.00 | 0.00 | 0.00 | 92 | 1017.7 |
| 20260503213104 | 62 | 21 | 1.7 | 4.3 | 0.00 | 0.00 | 0.00 | 92 | 1017.7 |
| 20260503212604 | 62 | 67 | 0.9 | 1.7 | 0.00 | 0.00 | 0.00 | 92 | 1017.8 |
| 20260503212104 | 62 | 68 | 0.9 | 2.6 | 0.00 | 0.00 | 0.00 | 93 | 1017.7 |
| 20260503211104 | 62 | 68 | 1.7 | 4.3 | 0.00 | 0.00 | 0.00 | 93 | 1017.5 |
| 20260503210604 | 62 | 69 | 2.6 | 2.6 | 0.00 | 0.00 | 0.00 | 93 | 1017.3 |
| 20260503205604 | 61 | 90 | 0.9 | 2.6 | 0.00 | 0.00 | 0.00 | 93 | 1017.3 |
| 20260503205104 | 61 | 91 | 0.0 | 0.9 | 0.00 | 0.00 | 0.00 | 93 | 1017.2 |
| 20260503204604 | 61 | 253 | 0.0 | 0.9 | 0.00 | 0.00 | 0.00 | 93 | 1017.2 |
| 20260503204104 | 61 | 255 | 0.0 | 0.9 | 0.00 | 0.00 | 0.00 | 94 | 1017.1 |
| 20260503203604 | 61 | 255 | 0.9 | 1.7 | 0.00 | 0.00 | 0.00 | 93 | 1017.1 |
| 20260503203104 | 61 | 255 | 0.0 | 0.9 | 0.00 | 0.00 | 0.00 | 94 | 1017.0 |
| 20260503202604 | 61 | 255 | 0.0 | 0.0 | 0.00 | 0.00 | 0.00 | 94 | 1017.0 |
| 20260503202104 | 61 | 255 | 0.0 | 0.0 | 0.00 | 0.00 | 0.00 | 94 | 1017.0 |
| 20260503201603 | 61 | 255 | 0.0 | 0.0 | 0.00 | 0.00 | 0.00 | 94 | 1017.0 |
| 20260503201104 | 61 | 255 | 0.0 | 0.9 | 0.00 | 0.00 | 0.00 | 94 | 1016.9 |
| 20260503200604 | 61 | 255 | 0.9 | 1.7 | 0.00 | 0.00 | 0.00 | 94 | 1016.9 |
| 20260503200104 | 60 | 255 | 0.9 | 1.7 | 0.00 | 0.00 | 0.00 | 94 | 1016.9 |
| 20260503195604 | 60 | 255 | 0.0 | 0.0 | 0.00 | 0.00 | 0.00 | 94 | 1016.8 |
| 20260503195104 | 60 | 255 | 0.0 | 0.9 | 0.00 | 0.00 | 0.00 | 94 | 1016.7 |
| 20260503194604 | 60 | 255 | 0.9 | 1.7 | 0.00 | 0.00 | 0.00 | 94 | 1016.7 |
| 20260503193604 | 60 | 255 | 1.7 | 2.6 | 0.00 | 0.00 | 0.00 | 94 | 1016.6 |
| 20260503193103 | 60 | 255 | 0.9 | 2.6 | 0.00 | 0.00 | 0.00 | 94 | 1016.6 |
| 20260503192604 | 60 | 255 | 0.9 | 1.7 | 0.00 | 0.00 | 0.00 | 94 | 1016.6 |
| 20260503192104 | 60 | 255 | 0.9 | 2.6 | 0.00 | 0.00 | 0.00 | 94 | 1016.5 |
| 20260503191604 | 60 | 255 | 0.9 | 0.9 | 0.00 | 0.00 | 0.00 | 94 | 1016.6 |
| 20260503191104 | 60 | 255 | 0.0 | 0.0 | 0.00 | 0.00 | 0.00 | 94 | 1016.6 |
| 20260503190104 | 60 | 255 | 0.0 | 0.9 | 0.00 | 0.00 | 0.00 | 94 | 1016.7 |
| 20260503185604 | 60 | 255 | 0.9 | 1.7 | 0.00 | 0.00 | 0.00 | 94 | 1016.6 |
| 20260503185104 | 60 | 255 | 0.9 | 2.6 | 0.00 | 0.00 | 0.00 | 94 | 1016.6 |
| 20260503184604 | 60 | 255 | 1.7 | 2.6 | 0.00 | 0.00 | 0.00 | 94 | 1016.7 |
| 20260503184104 | 60 | 255 | 0.9 | 1.7 | 0.00 | 0.00 | 0.00 | 94 | 1016.7 |
| 20260503183604 | 60 | 255 | 0.0 | 0.9 | 0.00 | 0.00 | 0.00 | 94 | 1016.7 |
| 20260503183104 | 60 | 255 | 0.0 | 0.9 | 0.00 | 0.00 | 0.00 | 94 | 1016.6 |
| 20260503182604 | 60 | 255 | 0.0 | 0.9 | 0.00 | 0.00 | 0.00 | 94 | 1016.6 |
| 20260503182104 | 60 | 255 | 0.0 | 0.0 | 0.00 | 0.00 | 0.00 | 94 | 1016.6 |
| 20260503181604 | 60 | 255 | 0.9 | 1.7 | 0.00 | 0.00 | 0.00 | 94 | 1016.7 |
| 20260503181104 | 60 | 255 | 0.9 | 1.7 | 0.00 | 0.00 | 0.00 | 94 | 1016.8 |
| 20260503180604 | 60 | 255 | 0.0 | 0.9 | 0.00 | 0.00 | 0.00 | 94 | 1016.6 |
| 20260503180104 | 60 | 255 | 0.0 | 0.9 | 0.00 | 0.00 | 0.00 | 94 | 1016.6 |
| 20260503175604 | 60 | 255 | 0.0 | 0.9 | 0.00 | 0.00 | 0.00 | 94 | 1016.6 |
| 20260503174104 | 60 | 255 | 0.0 | 0.9 | 0.00 | 0.00 | 0.00 | 94 | 1016.6 |
| 20260503173604 | 60 | 255 | 0.0 | 0.9 | 0.00 | 0.00 | 0.00 | 94 | 1016.6 |
| 20260503173104 | 60 | 255 | 0.0 | 0.0 | 0.00 | 0.00 | 0.00 | 94 | 1016.7 |
| 20260503172604 | 59 | 255 | 0.0 | 0.9 | 0.00 | 0.00 | 0.00 | 94 | 1016.7 |
| 20260503172104 | 59 | 255 | 0.9 | 1.7 | 0.00 | 0.00 | 0.00 | 94 | 1016.7 |
| 20260503171604 | 59 | 255 | 0.9 | 1.7 | 0.00 | 0.00 | 0.00 | 94 | 1016.8 |
| 20260503171104 | 59 | 255 | 0.0 | 0.9 | 0.00 | 0.00 | 0.00 | 94 | 1016.8 |
| 20260503170604 | 59 | 255 | 0.9 | 1.7 | 0.00 | 0.00 | 0.00 | 93 | 1016.8 |
| 20260503170104 | 60 | 255 | 0.0 | 1.7 | 0.00 | 0.00 | 0.00 | 93 | 1016.9 |
| 20260503160105 | 60 | 88 | 0.9 | 1.7 | 0.00 | 0.00 | 0.00 | 93 | 1017.7 |